• MPC Preparation (Info)

  • MPEC 2010-G90 : 2010 GP33

    The following Minor Planet Electronic Circular may be linked-to from your own Web pages, but must not otherwise be redistributed electronically.

    A form allowing access to any MPEC is at the bottom of this page.


    Read MPEC 2010-G89 Read MPEC 2010-G91


    M.P.E.C. 2010-G90                                Issued 2010 Apr. 12, 11:27 UT
    
         The Minor Planet Electronic Circulars contain information on unusual
             minor planets and routine data on comets.  They are published
       on behalf of Commission 20 of the International Astronomical Union by the
              Minor Planet Center, Smithsonian Astrophysical Observatory,
                              Cambridge, MA 02138, U.S.A.
    
                 Prepared using the Tamkin Foundation Computer Network
    
                                  MPC@CFA.HARVARD.EDU
           URL https://www.minorplanetcenter.org/iau/mpc.html  ISSN 1523-6714
    
                                       2010 GP33
    
    Observations:
         K10G33P  C2010 04 11.22975 11 06 53.53 +09 35 34.6          20.9 V EG090G96
         K10G33P  C2010 04 11.23625 11 06 51.33 +09 34 59.1          21.1 V EG090G96
         K10G33P  C2010 04 11.24280 11 06 49.14 +09 34 24.5          20.3 V EG090G96
         K10G33P* C2010 04 11.28704 11 06 34.48 +09 30 28.1          21.1 V EG090G96
         K10G33P  C2010 04 11.29618 11 06 31.53 +09 29 39.7          20.8 V EG090G96
         K10G33P  C2010 04 11.30549 11 06 28.44 +09 28 48.3          20.9 V EG090G96
         K10G33P  C2010 04 11.31480 11 06 25.43 +09 27 57.8          20.6 V EG090G96
         K10G33P KC2010 04 11.86272 11 03 58.52 +08 36 12.8                 EG090J95
         K10G33P KC2010 04 11.87325 11 03 54.92 +08 35 11.5                 EG090J95
         K10G33P KC2010 04 11.88357 11 03 51.43 +08 34 11.5          20.8 R EG090J95
         K10G33P FC2010 04 12.00763 11 03 06.98 +08 22 04.7          19.9 R EG090473
         K10G33P FC2010 04 12.01041 11 03 06.07 +08 21 47.9          19.9 R EG090473
         K10G33P  C2010 04 12.06780111 03 00.33 +08 16 26.2          20.7 V EG090H21
         K10G33P  C2010 04 12.07738111 02 56.86 +08 15 28.9          20.3 V EG090H21
         K10G33P IC2010 04 12.09497011 02 50.57 +08 13 43.4                 EG090H21
         K10G33P  C2010 04 12.10028 11 02 52.02 +08 13 23.4          20.0 R EG090H01
         K10G33P  C2010 04 12.11021 11 02 48.52 +08 12 23.8          20.8 R EG090H01
         K10G33P  C2010 04 12.11533 11 02 46.69 +08 11 52.9          20.1 R EG090H01
         K10G33P  C2010 04 12.12033 11 02 44.91 +08 11 22.9          20.5 R EG090H01
         K10G33P IC2010 04 12.13792 11 02 36.25 +08 09 25.5          20.4 R EG090H36
         K10G33P KC2010 04 12.15354 11 02 30.87 +08 07 49.9          20.3 R EG090H36
         K10G33P KC2010 04 12.16917 11 02 25.06 +08 06 13.9          20.3 R EG090H36
         K10G33P  C2010 04 12.21417 11 02 11.18 +08 01 56.3          20.4 V EG090G96
         K10G33P  C2010 04 12.22363 11 02 07.66 +08 00 57.9          20.7 V EG090G96
         K10G33P  C2010 04 12.23148 11 02 04.81 +08 00 12.3          20.3 R EG090926
         K10G33P  C2010 04 12.23326 11 02 04.12 +07 59 58.0          20.3 V EG090G96
         K10G33P  C2010 04 12.23675 11 02 02.83 +07 59 39.5          21.1 R EG090926
         K10G33P  C2010 04 12.24203 11 02 00.88 +07 59 06.8          20.3 R EG090926
         K10G33P  C2010 04 12.24287 11 02 00.52 +07 58 58.6          20.6 V EG090G96
    
    Observer details:
    473 Remanzacco.  Observers L. Donato, V. Gonano, E. Guido, G. Sostero.  0.45-m
        f/4.4 Newtonian reflector + CCD.
    926 Tenagra II Observatory.  Observers P. R. Holvorcem, M. Schwartz.  Measurer
        P. R. Holvorcem.  0.81-m f/7 Ritchey-Chretien + CCD.
    G96 Mt. Lemmon Survey.  Observer S. M. Larson.  Measurers J. D. Ahern,
        E. C. Beshore, A. Boattini, G. J. Garradd, A. R. Gibbs, A. D. Grauer,
        R. E. Hill, R. A. Kowalski, S. M. Larson, R. H. McNaught.  1.5-m reflector
        + CCD.
    H01 Magdalena Ridge Observatory, Socorro.  Observers W. H. Ryan, E. V. Ryan.
        Measurer W. H. Ryan.  2.4-m f/8.9 reflector + CCD.
    H21 Astronomical Research Observatory, Westfield.  Observer R. Holmes.
        Measurer S. Foglia.
    H36 Sandlot Observatory, Scranton.  Observer G. Hug.  0.56-m reflector + CCD.
    J95 Great Shefford.  Observer P. Birtwhistle.  0.40-m f/6.0 Schmidt-Cassegrain
        + CCD.
    
    Orbital elements:
    2010 GP33                                                Earth MOID = 0.0176 AU
    Epoch 2010 July 23.0 TT = JDT 2455400.5                 MPC
    M  35.59911              (2000.0)            P               Q
    n   0.52562282     Peri.  218.01842     -0.51449344     +0.85682090
    a   1.5206172      Node    21.08414     -0.76178324     -0.43851675
    e   0.3554356      Incl.    5.41965     -0.39367855     -0.27122133
    P   1.88           H   25.7           G   0.15           U   7
    Residuals in seconds of arc
    100411 G96  0.5+  0.4+    100412 473  1.0-  0.2-    100412 H36  1.0+  0.2-
    100411 G96  0.1-  0.7-    100412 473  0.8-  0.2-    100412 H36  0.7-  0.8-
    100411 G96  0.3-  0.5-    100412 H21  0.7+  0.6+    100412 G96  0.2-  0.0
    100411 G96  0.4-  0.1-    100412 H21  0.6-  0.4+    100412 G96  0.3-  0.0
    100411 G96  0.4+  0.8+    100412 H21  1.1-  0.3+    100412 926  0.7+  0.1+
    100411 G96  0.3-  0.2-    100412 H01  0.2+  0.2+    100412 G96  0.4+  0.3-
    100411 G96  0.0   0.1-    100412 H01  0.4+  0.0     100412 926  0.5+  0.0
    100411 J95  0.0   0.3+    100412 H01  0.3+  0.2-    100412 926  0.8+  0.1+
    100411 J95  0.5-  0.2+    100412 H01  0.4+  0.2-    100412 G96  0.0   0.0
    100411 J95  0.3-  0.3+    100412 H36 (3.3-  0.5+)
    
    Ephemeris:
    2010 GP33                a,e,i = 1.52, 0.36, 5                   q = 0.9801
    Date    TT    R. A. (2000) Decl.     Delta      r     Elong.  Phase     V
    2010 04 04    11 30.05   +16 11.8    0.0794   1.070   150.4    27.5    21.6
    2010 04 06    11 25.07   +14 58.2    0.0713   1.062   148.5    29.5    21.4
    2010 04 08    11 19.18   +13 22.1    0.0635   1.055   146.5    31.6    21.2
    2010 04 10    11 12.08   +11 15.3    0.0558   1.048   144.3    33.9    20.9
    2010 04 12    11 03.27   +08 24.9    0.0484   1.041   141.8    36.6    20.7
    2010 04 14    10 51.94   +04 30.4    0.0413   1.034   138.7    39.8    20.4
    2010 04 16    10 36.71   -01 01.0    0.0346   1.028   134.7    44.0    20.1
    2010 04 18    10 15.05   -09 00.7    0.0287   1.022   128.8    49.9    19.9
    2010 04 20    09 42.06   -20 30.3    0.0239   1.017   119.9    58.9    19.7
    2010 04 22    08 48.04   -35 26.3    0.0211   1.011   107.1    71.8    19.9
    2010 04 24    07 18.54   -49 42.1    0.0212   1.007    92.3    86.5    20.4
    2010 04 26    05 18.90   -56 38.4    0.0239   1.002    79.9    98.7    21.2
    2010 04 28    03 37.57   -56 07.0    0.0287   0.998    72.0   106.5    21.9
    2010 04 30    02 34.81   -52 53.4    0.0346   0.994    67.5   110.6    22.6
    2010 05 02    01 57.57   -49 31.3    0.0411   0.991    65.3   112.5    23.1
    2010 05 04    01 34.21   -46 37.7    0.0481   0.988    64.4   113.1    23.4
    
    Timothy B. Spahr             (C) Copyright 2010 MPC           M.P.E.C. 2010-G90
    

    Read MPEC 2010-G89 Read MPEC 2010-G91


    MPEC number:

    Enter an MPEC number in one of the following forms:

    • 1997-B01 (the full form)
    • J97B01 (the packed version of the full form)
    • B01 (the abbreviated form)